0 HST
1 20580U 90037B   25220.83832794  .00006225  00000-0  22831-3 0  9993
2 20580  28.4688  47.8976 0001812 321.4971  38.5494 15.25825232740732
0 ISS (ZARYA)
1 25544U 98067A   25221.25173611  .00006550  00000-0  12095-3 0  9994
2 25544  51.6366  44.0509 0001805 168.6393 192.8720 15.50401967523390
0 CXO
1 25867U 99040B   25222.32971541  .00000969  00000-0  00000-0 0  9999
2 25867  50.5518 127.4471 8337855 310.0112   0.8647  0.37797802 16147